Weather History for KXNA - October, 2014

Change the Weather History Date:

Tuesday, October 21, 2014

  Actual Average Record
Temperature  
Mean Temperature 60 °F -  
Max Temperature 77 °F - - ()
Min Temperature 46 °F - - ()
Degree Days  
Heating Degree Days 4    
Growing Degree Days 10 (Base 50)    
Moisture  
Dew Point 53 °F    
Average Humidity 83    
Maximum Humidity 100    
Minimum Humidity 41    
Precipitation  
Precipitation 0.00 in - - ()
Sea Level Pressure  
Sea Level Pressure 30.10 in    
Wind  
Wind Speed 1 mph (East)    
Max Wind Speed 5 mph    
Max Gust Speed -    
Visibility 4 miles    
Events Fog    
T = Trace of Precipitation, MM = Missing Value Source: NWS Daily Summary

Daily Weather History Graph

Daily Weather History Graph

Search for Another Location

Airport or City:

Trip Planner

Search our weather history database for the weather conditions in past years. The results will help you decide how hot, cold, wet, or windy it might be!

Date:

Astronomy

Oct. 21, 2014 Rise Set
Actual Time 7:29 AM CDT 6:33 PM CDT
Civil Twilight 7:03 AM CDT 6:59 PM CDT
Nautical Twilight 6:33 AM CDT 7:29 PM CDT
Astronomical Twilight 6:03 AM CDT 7:59 PM CDT
Moon 5:18 AM CDT (10/21) 5:24 PM CDT (10/21)
Length of Visible Light 11h 55m
Length of Day
11h 03m
Waning Crescent, 5% of the Moon is Illuminated
Oct 21
Waning Crescent
Oct 23
New
Oct 30
First Quarter
Nov 6
Full
Nov 14
Last Quarter

Hourly Weather History & Observations

Time (CDT) Temp. Dew Point Humidity Pressure Visibility Wind Dir Wind Speed Gust Speed Precip Events Conditions
12:53 AM 48.9 °F 48.9 °F 100% 30.07 in 0.2 mi Calm Calm - N/A Fog Fog
1:53 AM 48.9 °F 48.9 °F 100% 30.07 in 0.2 mi Calm Calm - N/A Fog Fog
2:53 AM 46.9 °F 46.9 °F 100% 30.07 in 0.2 mi Calm Calm - N/A Fog Fog
3:41 AM 48.0 °F 48.0 °F 100% 30.08 in 0.2 mi NNE 4.6 mph - N/A Fog Fog
3:53 AM 48.0 °F 48.0 °F 100% 30.07 in 0.2 mi North 4.6 mph - N/A Fog Fog
4:53 AM 50.0 °F 50.0 °F 100% 30.08 in 0.2 mi Calm Calm - N/A Fog Fog
5:37 AM 50.0 °F 50.0 °F 100% 30.10 in 0.2 mi Calm Calm - N/A Fog Fog
5:53 AM 50.0 °F 50.0 °F 100% 30.09 in 0.2 mi Calm Calm - N/A Fog Fog
6:53 AM 48.9 °F 48.9 °F 100% 30.10 in 0.2 mi Calm Calm - N/A Fog Fog
7:53 AM 48.9 °F 48.9 °F 100% 30.12 in 0.2 mi Calm Calm - N/A Fog Fog
8:53 AM 50.0 °F 50.0 °F 100% 30.14 in 0.2 mi Calm Calm - N/A Fog Fog
9:53 AM 53.1 °F 53.1 °F 100% 30.15 in 0.2 mi Calm Calm - N/A Fog Fog
10:19 AM 62.1 °F 59.0 °F 90% 30.15 in 0.2 mi North - - N/A Fog Fog
10:32 AM 55.9 °F 55.9 °F 100% 30.16 in 0.5 mi North - - N/A Fog Fog
10:35 AM 55.9 °F 55.9 °F 100% 30.16 in 0.5 mi SE 3.5 mph - N/A Fog Fog
10:42 AM 55.9 °F 55.9 °F 100% 30.16 in 1.2 mi SSE 3.5 mph - N/A   Overcast
10:53 AM 59.0 °F 57.9 °F 96% 30.15 in 2.0 mi SE 3.5 mph - N/A   Overcast
11:04 AM 61.0 °F 59.0 °F 93% 30.15 in 4.0 mi ESE 4.6 mph - N/A   Mostly Cloudy
11:16 AM 62.1 °F 59.0 °F 90% 30.15 in 5.0 mi SE 3.5 mph - N/A   Partly Cloudy
11:53 AM 66.9 °F 60.1 °F 79% 30.13 in 10.0 mi Calm Calm - N/A   Clear
12:53 PM 73.0 °F 55.0 °F 53% 30.11 in - Calm Calm - N/A   Clear
1:53 PM 73.9 °F 48.9 °F 41% 30.08 in 6.0 mi Calm Calm - N/A   Haze
2:23 PM 75.9 °F 52.0 °F 43% 30.09 in 2.0 mi Variable 3.5 mph - N/A   Haze
2:33 PM 75.0 °F 51.1 °F 43% 30.09 in 5.0 mi Calm Calm - N/A   Haze
2:53 PM 75.0 °F 52.0 °F 44% 30.06 in 5.0 mi Calm Calm - N/A   Haze
3:53 PM 75.9 °F 52.0 °F 43% 30.06 in 4.0 mi Calm Calm - N/A   Haze
4:53 PM 75.0 °F 54.0 °F 48% 30.05 in 10.0 mi ENE 3.5 mph - N/A   Clear
5:53 PM 73.0 °F 55.0 °F 53% 30.04 in 10.0 mi Calm Calm - N/A   Clear
6:53 PM 66.0 °F 55.0 °F 68% 30.05 in 5.0 mi Calm Calm - N/A   Haze
7:53 PM 62.1 °F 54.0 °F 75% 30.07 in 10.0 mi Calm Calm - N/A   Clear
8:53 PM 57.9 °F 53.1 °F 84% 30.09 in 10.0 mi Calm Calm - N/A   Clear
9:53 PM 55.0 °F 53.1 °F 93% 30.11 in 10.0 mi NE 4.6 mph - N/A   Clear
10:53 PM 55.9 °F 53.1 °F 90% 30.11 in 10.0 mi Calm Calm - N/A   Clear
11:53 PM 57.9 °F 53.1 °F 84% 30.09 in 4.0 mi Calm Calm - N/A   Haze